Location: Newark
(13.8625°N, 100.5144°E)
Time: 12:35:29
(UTC+00:00)

Envisat - Pass Details

Date: 10 April 2020
Orbit: 764 x 766 km, 98.1° (Epoch: 02 June)

Event Time Altitude Azimuth Distance (km) Brightness Sun altitude
Rises 11:55:38 0° 190° (S) 3,219 6.2 -6.8°
Reaches altitude 10° 11:58:12 10° 201° (SSW) 2,294 5.6 -7.4°
Maximum altitude 12:02:31 28° 260° (W) 1,390 5.2 -8.4°
Drops below altitude 10° 12:06:51 10° 319° (NW) 2,297 6.3 -9.5°
Sets 12:09:26 0° 331° (NNW) 3,224 6.9 -10.1°
